Вернуться в каталог

HULIANWANG DIGUI-169

АктивенНаукаLEO
NORAD 69572·PAYLOAD·🇨🇳 China

Запущен Jun 17, 2026 с Wenchang Space Launch Site

Loading…

Ближайшие Пролёты (ближайшие 24 часа)

TLE

СвежийSource: Space-Track

Эпоха: Sep 14, 2026, 07:51 UTC

1 69572U 26137A   26257.32713348 -.00000086  00000-0  80954-4 0  9996
2 69572  50.0008 276.4391 0000190 332.5183  27.5679 13.29326160 12182

Отслеживайте HULIANWANG DIGUI-169 в реальном времени с AllMySat

Download on the App Store